Location: Eckley Miners' Village
(40.9930°N, 75.8630°W)
Time: 10:58:29
(UTC-04:00)

Vanguard 1 Rocket - Pass Details

Date: 08 March 2026
Orbit: 654 x 4213 km, 34.3° (Epoch: 11 April)

Event Time Altitude Azimuth Distance (km) Brightness Sun altitude
Rises 17:19:55 0° 259° (WSW) 4,775 12.7 17.9°
Reaches altitude 10° 17:25:32 10° 232° (SW) 4,503 12.8 16.9°
Maximum altitude 17:30:15 13° 210° (SSW) 4,837 12.1 16.1°
Drops below altitude 10° 17:36:01 10° 189° (S) 5,695 11.9 15.0°
Sets 17:46:07 0° 167° (SSE) 7,606 12.2 13.2°
